Flag for Canada Weather past 2 weeks in Windsor, Ontario, Canada

Now
39 °F

Mostly cloudy.


Feels Like: 34 °F
Forecast: 37 / 50 °F
Wind: 7 mph from Northeast

Location: Windsor Weather Station

Current Time: Apr 25, 2015 at 3:19:05 AM

Latest Report: Apr 25, 2015 at 3:00 AM


Visibility: 15 mi

Pressure: 30.01 "Hg

Humidity: 75%

Dew point: 32 °F

Location of WindsorLocation

Historic Weather in Windsor — Graph

°F

Windsor temperature yesterday

Maximum temperature yesterday: 55 °F (at 4:00 PM)
Minimum temperature yesterday: 28 °F (at 12:00 AM)
Average temperature yesterday: 40 °F

Past Weeks' High & Low Weather Summary

 TemperatureHumidityPressure
High72 °F (Apr 13, 2:00 PM)100% (Apr 16, 9:00 PM)30.40 "Hg (Apr 16, 9:00 PM)
Low28 °F (Apr 24, 12:00 AM)23% (Apr 24, 4:00 PM)29.25 "Hg (Apr 20, 6:00 AM)
Average49 °F64%29.96 "Hg
* Reported Apr 10 2:00 AM — Apr 25 2:00 AM, Windsor, Weather by CustomWeather, © 2015

Note: Actual official high and low records may vary slightly from our data, if they occured in-between our weather recording intervals... More about our weather records

Advertising

Windsor weather history for previous 24 hours

 ConditionsComfort  
Time TempWeatherWind HumidityBarometerVisibility
2:00 AM
Sat, Apr 25
41 °FOvercast.2 mph66%30.03 "Hg15 mi
1:00 AM41 °FMostly cloudy.6 mph70%30.03 "Hg15 mi
12:00 AM41 °FOvercast.7 mph66%30.01 "Hg15 mi
11:00 PM
Fri, Apr 24
43 °FOvercast.9 mph66%30.01 "Hg15 mi
10:00 PM39 °FPassing clouds.7 mph75%30.02 "Hg15 mi
9:00 PM41 °FPartly sunny.8 mph70%30.01 "Hg15 mi
7:00 PM52 °FPassing clouds.13 mph47%30.01 "Hg15 mi
6:00 PM54 °FPassing clouds.14 mph38%30.00 "Hg15 mi
5:00 PM55 °FPassing clouds.5 mph24%30.01 "Hg15 mi
4:00 PM55 °FPassing clouds.10 mph23%30.02 "Hg15 mi
3:00 PM54 °FPassing clouds.14 mph24%30.05 "Hg15 mi
2:00 PM52 °FSunny.12 mph32%30.07 "Hg15 mi
1:00 PM46 °FSunny.8 mph37%30.09 "Hg15 mi
12:00 PM45 °FSunny.3 mph39%30.12 "Hg15 mi
11:00 AM43 °FSunny.8 mph39%30.12 "Hg15 mi
10:00 AM39 °FPassing clouds.5 mph42%30.14 "Hg15 mi
9:00 AM37 °FPassing clouds.8 mph48%30.13 "Hg15 mi
8:00 AM34 °FSunny.5 mph65%30.12 "Hg15 mi
7:00 AM30 °FClear.6 mph69%30.10 "Hg15 mi
6:00 AM28 °FPassing clouds.7 mph74%30.09 "Hg15 mi
5:00 AM28 °FClear.8 mph74%30.08 "Hg15 mi
4:00 AM28 °FClear.8 mph74%30.07 "Hg15 mi
3:00 AM28 °FClear.5 mph80%30.06 "Hg15 mi
Weather by CustomWeather, © 2015

See weather overviewHow to use our weather pages